Antwerp, Belgium

6:04 AM CEST on May 29, 2017 (GMT +0200)
Deurne

Weather History for EBAW - January, 2013

Change the Weather History Date:

Tuesday, January 1, 2013

  Actual Average Record
Temperature  
Mean Temperature 44 °F -  
Max Temperature 47 °F 42 °F 57 °F (2012)
Min Temperature 41 °F 33 °F 8 °F (1997)
Degree Days  
Heating Degree Days 21    
Moisture  
Dew Point 40 °F    
Average Humidity 83    
Maximum Humidity 93    
Minimum Humidity 64    
Precipitation  
Precipitation 0.12 in - - ()
Sea Level Pressure  
Sea Level Pressure 29.70 in    
Wind  
Wind Speed 12 mph ()    
Max Wind Speed 17 mph    
Max Gust Speed 30 mph    
Visibility 7.1 miles    
Events Rain    
Averages and records for this station are not official NWS values.
T = Trace of Precipitation, MM = Missing Value Source: Averaged Metar Reports

Daily Weather History Graph

Daily Weather History Graph

Search for Another Location

Airport or City:

Trip Planner

Search our weather history database for the weather conditions in past years. The results will help you decide how hot, cold, wet, or windy it might be!

Date:

Astronomy

Jan. 01, 2013 Rise Set
Actual Time 8:46 AM CET 4:45 PM CET
Civil Twilight 8:06 AM CET 5:25 PM CET
Nautical Twilight 7:24 AM CET 6:07 PM CET
Astronomical Twilight 6:43 AM CET 6:47 PM CET
Moon 9:32 PM CET (1/1) 10:21 AM CET (1/1)
Length of Visible Light 9h 18m
Length of Day
7h 59m
Waning Gibbous, 85% of the Moon is Illuminated
Jan 1
Waning Gibbous
Jan 5
Last Quarter
Jan 11
New
Jan 19
First Quarter
Jan 27
Full

Hourly Weather History & Observations

Time (CET) Temp. Windchill Dew Point Humidity Pressure Visibility Wind Dir Wind Speed Gust Speed Precip Events Conditions
12:20 AM 48.2 °F - 44.6 °F 87% 29.59 in 6.2 mi SSW 16.1 mph - N/A Rain Light Rain
12:50 AM 48.2 °F - 44.6 °F 87% 29.59 in 6.2 mi SW 17.3 mph 29.9 mph N/A Rain Light Rain
1:20 AM 48.2 °F - 44.6 °F 87% 29.59 in 6.2 mi SSW 17.3 mph 29.9 mph N/A Rain Light Rain
1:50 AM 46.4 °F 39.8 °F 44.6 °F 93% 29.56 in 6.2 mi SW 16.1 mph 27.6 mph N/A Rain Light Rain
2:20 AM 46.4 °F 39.5 °F 44.6 °F 93% 29.56 in 6.2 mi SSW 17.3 mph - N/A Rain Light Rain
2:50 AM 46.4 °F 40.1 °F 44.6 °F 93% 29.56 in 6.2 mi SSW 15.0 mph - N/A Rain Light Rain
3:20 AM 46.4 °F 40.1 °F 44.6 °F 93% 29.56 in 6.2 mi SSW 15.0 mph - N/A Rain Light Rain
3:50 AM 46.4 °F 40.4 °F 44.6 °F 93% 29.56 in 6.2 mi SW 13.8 mph - N/A Rain Light Rain
4:00 AM 47 °F - 44 °F 87% 29.57 in 6 mi SW 13.4 mph - - Rain Light Rain
4:20 AM 46.4 °F 40.1 °F 44.6 °F 93% 29.56 in 5.6 mi SSW 15.0 mph - N/A Rain Light Rain
4:50 AM 46.4 °F 40.4 °F 44.6 °F 93% 29.56 in 6.2 mi SW 13.8 mph - N/A Rain Light Rain
5:20 AM 46.4 °F 40.7 °F 44.6 °F 93% 29.56 in 6.2 mi SW 12.7 mph - N/A Rain Light Rain
5:50 AM 46.4 °F 40.7 °F 44.6 °F 93% 29.56 in 6.2 mi SW 12.7 mph - N/A   Overcast
6:20 AM 46.4 °F 40.7 °F 44.6 °F 93% 29.53 in 6.2 mi SW 12.7 mph - N/A Rain Light Rain Showers
6:50 AM 46.4 °F 41.1 °F 44.6 °F 93% 29.56 in 6.2 mi SW 11.5 mph - N/A   Overcast
7:00 AM 47 °F - 45 °F 88% 29.56 in 25 mi SW 11.2 mph - -   Clear
7:20 AM 46.4 °F 40.7 °F 44.6 °F 93% 29.56 in 6.2 mi SSW 12.7 mph - N/A Rain Light Rain Showers
7:50 AM 46.4 °F 41.1 °F 44.6 °F 93% 29.56 in 6.2 mi SW 11.5 mph - N/A Rain Light Rain Showers
8:20 AM 48.2 °F - 44.6 °F 87% 29.56 in 6.2 mi SW 10.4 mph - N/A Rain Light Rain Showers
8:50 AM 46.4 °F 41.5 °F 44.6 °F 93% 29.56 in 4.3 mi SW 10.4 mph - N/A Rain Light Rain Showers
9:20 AM 48.2 °F - 44.6 °F 87% 29.56 in 6.2 mi SW 11.5 mph - N/A Rain Light Rain
9:50 AM 46.4 °F 41.1 °F 44.6 °F 93% 29.59 in 5.6 mi WSW 11.5 mph - N/A Rain Rain Showers
10:00 AM 47 °F - 45 °F 90% 29.60 in 6 mi WSW 11.2 mph - - Rain Light Rain
10:20 AM 46.4 °F 41.5 °F 44.6 °F 93% 29.62 in 4.3 mi WNW 10.4 mph - N/A Rain Rain Showers
10:50 AM 46.4 °F 40.4 °F 42.8 °F 87% 29.62 in 6.2 mi NNW 13.8 mph - N/A Rain Light Rain
11:20 AM 44.6 °F 37.2 °F 41.0 °F 87% 29.65 in 5.0 mi NW 17.3 mph - N/A Rain Light Rain Showers
11:50 AM 44.6 °F 38.1 °F 41.0 °F 87% 29.68 in 6.2 mi WNW 13.8 mph - N/A Rain Light Rain Showers
12:20 PM 44.6 °F 39.2 °F 41.0 °F 87% 29.68 in 6.2 mi WNW 10.4 mph - N/A   Mostly Cloudy
12:50 PM 46.4 °F 40.7 °F 39.2 °F 76% 29.71 in 6.2 mi WNW 12.7 mph - N/A   Scattered Clouds
1:00 PM 46 °F - 39 °F 69% 29.72 in 17 mi WNW 13.4 mph - -   Clear
1:20 PM 46.4 °F 40.4 °F 37.4 °F 71% 29.71 in 6.2 mi WNW 13.8 mph - N/A   Partly Cloudy
1:50 PM 46.4 °F 40.1 °F 35.6 °F 66% 29.74 in - WNW 15.0 mph - N/A   Clear
2:20 PM 46.4 °F 40.4 °F 35.6 °F 66% 29.74 in 6.2 mi WNW 13.8 mph - N/A   Scattered Clouds
2:50 PM 46.4 °F 41.1 °F 35.6 °F 66% 29.77 in - West 11.5 mph - N/A   Clear
3:20 PM 44.6 °F 38.8 °F 35.6 °F 71% 29.77 in 6.2 mi West 11.5 mph - N/A   Scattered Clouds
3:50 PM 44.6 °F 39.2 °F 37.4 °F 76% 29.77 in 6.2 mi West 10.4 mph - N/A   Partly Cloudy
4:00 PM 45 °F - 37 °F 64% 29.79 in 18 mi West 8.9 mph - -   Scattered Clouds
4:20 PM 44.6 °F 39.7 °F 35.6 °F 71% 29.80 in - West 9.2 mph - N/A   Clear
4:50 PM 42.8 °F 36.6 °F 35.6 °F 76% 29.80 in - West 11.5 mph - N/A   Clear
5:20 PM 42.8 °F 37.5 °F 35.6 °F 76% 29.80 in - West 9.2 mph - N/A   Clear
5:50 PM 42.8 °F 38.0 °F 35.6 °F 76% 29.83 in 6.2 mi West 8.1 mph - N/A   Partly Cloudy
6:20 PM 42.8 °F 37.5 °F 35.6 °F 76% 29.83 in - WSW 9.2 mph - N/A   Clear
6:50 PM 42.8 °F 38.6 °F 35.6 °F 76% 29.86 in - WSW 6.9 mph - N/A   Clear
7:00 PM 42 °F - 36 °F 73% 29.86 in 16 mi WSW 6.7 mph - -  
7:20 PM 41.0 °F 35.8 °F 35.6 °F 81% 29.86 in - WSW 8.1 mph - N/A   Clear
7:50 PM 41.0 °F 35.2 °F 35.6 °F 81% 29.86 in - WSW 9.2 mph - N/A   Clear
8:20 PM 41.0 °F 35.8 °F 35.6 °F 81% 29.89 in - WSW 8.1 mph - N/A   Clear
8:50 PM 41.0 °F 35.2 °F 35.6 °F 81% 29.89 in - WSW 9.2 mph - N/A   Clear
9:20 PM 41.0 °F 35.2 °F 35.6 °F 81% 29.89 in 6.2 mi WSW 9.2 mph - N/A   Mostly Cloudy
9:50 PM 41.0 °F 35.2 °F 37.4 °F 87% 29.92 in - WSW 9.2 mph - N/A   Clear
10:00 PM 42 °F - 36 °F 74% 29.92 in 15 mi WSW 8.9 mph - -   Scattered Clouds
10:20 PM 41.0 °F 35.2 °F 35.6 °F 81% 29.92 in 6.2 mi WSW 9.2 mph - N/A   Scattered Clouds
10:50 PM 42.8 °F 37.5 °F 35.6 °F 76% 29.92 in - WSW 9.2 mph - N/A   Clear
11:20 PM 41.0 °F 34.7 °F 35.6 °F 81% 29.95 in - WSW 10.4 mph - N/A   Clear
11:50 PM 41.0 °F 35.2 °F 35.6 °F 81% 29.95 in - WSW 9.2 mph - N/A   Clear